Voltar ao catálogo

THORAD DELTA 1 DEB

AtivoSSO
NORAD 8436·DEBRIS·🇺🇸 United States

Lançado Nov 15, 1974 de Vandenberg Space Force Base

Loading…

Próximas Passagens (próximas 24 horas)

TLE

AtualizadoSource: Space-Track

Época: Sep 14, 2026, 14:12 UTC

1 08436U 74089CM  26257.59200719 -.00000015  00000-0  21796-3 0  9999
2 08436 101.7869   4.9689 0086957 250.5151 121.9530 12.35436573337727

Acompanhe THORAD DELTA 1 DEB em tempo real com AllMySat

Download on the App Store